[[{"header":{"parameterUnit":"m.s-1","parameterCategory":1,"la1":30.2991,"la2":30.254,"lo1":-89.0895,"lo2":-89.0444,"dy":0.0017,"dx":0.0017,"nx":28,"ny":28,"refTime":"2024-08-04T09:00:00:Z","depth":0,"parameterNumber":2,"parameterNumberName":"U-component_of_WINDS"},"data":[0,0,0,0,0,0,0,0,0,0,0,0,0,0,0,0,0,0,0,0,0,0,0,0,0,0,0,0,0,0,0,0,0,0,0,0,0,0,0,0,0,0,0,0,0,0,0,0,0,0,0,0,0,0,0,0,0,0,-1.3115,-1.3115,0,-1.3077,-1.3076,-1.3076,-1.3062,-1.3062,-1.3062,-1.3062,-1.3019,-1.3018,-1.3016,0,0,0,0,0,0,0,0,0,0,0,0,0,-1.3173,-1.3172,-1.3115,-1.3115,-1.3114,-1.3077,-1.3076,-1.3076,-1.3062,-1.3062,-1.3062,-1.3062,-1.3019,-1.3018,-1.3016,0,0,0,0,0,0,0,0,0,0,0,0,0,-1.3142,-1.3171,-1.3115,-1.3103,-1.3101,-1.3077,-1.3076,-1.3075,-1.3062,-1.3062,-1.3062,-1.3062,-1.302,-1.3018,-1.3016,-1.3,0,0,-1.301,-1.3009,0,0,0,0,0,0,0,0,-1.3144,-1.314,-1.3105,-1.3104,-1.3102,-1.3074,-1.308,-1.305,-1.3061,-1.3077,-1.3062,-1.3062,-1.3037,-1.3034,-1.3026,-1.2998,-1.2996,-1.301,-1.3009,-1.3008,-1.3008,0,0,0,0,0,0,0,-1.3146,-1.3142,-1.31,-1.3105,-1.3103,-1.3098,-1.3094,-1.3075,-1.3056,-1.3075,-1.3074,-1.307,-1.3036,-1.3028,-1.3025,-1.2995,-1.301,-1.3008,-1.3007,-1.3006,-1.295,-1.295,0,0,0,0,0,0,-1.3151,-1.3143,-1.3101,-1.3099,-1.3124,-1.3097,-1.3092,-1.3083,-1.3056,-1.3052,-1.307,-1.3069,-1.3031,-1.3027,-1.3023,-1.3001,-1.3008,-1.3006,-1.3005,-1.2951,-1.295,-1.295,0,0,0,0,0,0,-1.3152,-1.3147,-1.3103,-1.3121,-1.3115,-1.3095,-1.3085,-1.3082,-1.3074,-1.3052,-1.3048,-1.3065,-1.3031,-1.3026,-1.3006,-1.3,-1.3005,-1.3004,-1.2951,-1.295,-1.295,-1.2958,0,0,0,0,0,0,-1.3154,-1.3148,-1.3143,-1.3121,-1.3114,-1.3087,-1.3085,-1.3081,-1.3071,-1.307,-1.3046,-1.3043,-1.3031,-1.3009,-1.3004,-1.2997,-1.3002,-1.2951,-1.2951,-1.295,-1.2959,-1.2958,-1.2958,0,0,0,0,0,-1.3156,-1.3146,-1.3142,-1.3137,-1.3107,-1.3087,-1.3083,-1.307,-1.307,-1.3064,-1.305,-1.3043,-1.3001,-1.3007,-1.3001,-1.2994,-1.2952,-1.2951,-1.295,-1.2959,-1.2958,-1.2958,0,0,0,0,0,0,-1.3167,-1.3143,-1.3139,-1.3122,-1.3107,-1.3085,-1.3077,-1.307,-1.3054,-1.3054,-1.3037,-1.3032,-1.3013,-1.3001,-1.3008,-1.2976,-1.2976,-1.2974,-1.2984,-1.2984,-1.2983,-1.2986,-1.3001,0,0,0,0,0,-1.3167,-1.3154,-1.3134,-1.3121,-1.3113,-1.3096,-1.3087,-1.3079,-1.3062,-1.3055,-1.3039,-1.3022,-1.3004,-1.2993,-1.2976,-1.2957,-1.295,-1.2949,-1.2948,-1.2948,-1.2947,-1.2934,-1.2932,-1.2947,-1.2947,-1.2947,0,0,-1.3168,-1.3154,-1.3146,-1.3122,-1.311,-1.3095,-1.3091,-1.3076,-1.3064,-1.3052,-1.3032,-1.302,-1.2999,-1.2979,-1.2969,-1.2969,-1.2941,-1.2947,-1.2947,-1.2946,-1.2933,-1.2931,-1.293,-1.2947,-1.2947,-1.2947,0,0,-1.3162,-1.315,-1.3138,-1.3125,-1.3106,-1.3094,-1.3091,-1.307,-1.3062,-1.3042,-1.3032,-1.3017,-1.2988,-1.2973,-1.2962,-1.2949,-1.2941,-1.2943,-1.2942,-1.2929,-1.2928,-1.2927,-1.2921,-1.2919,-1.2942,-1.2942,-1.2942,0,-1.3166,-1.3144,-1.3132,-1.3117,-1.3106,-1.3095,-1.3081,-1.3069,-1.3045,-1.3037,-1.3037,-1.2999,-1.2984,-1.296,-1.2956,-1.2948,-1.2942,-1.2946,-1.293,-1.2928,-1.2927,-1.2921,-1.2919,-1.2942,-1.2942,-1.2942,-1.2942,0,-1.3149,-1.3134,-1.3126,-1.3104,-1.3092,-1.3077,-1.3061,-1.305,-1.3042,-1.303,-1.3008,-1.2991,-1.2969,-1.2962,-1.2954,-1.2936,-1.2936,-1.2933,-1.2933,-1.2926,-1.292,-1.2918,-1.2943,-1.2942,-1.2942,-1.2942,0,0,-1.3149,-1.312,-1.3117,-1.3106,-1.3083,-1.3071,-1.3055,-1.3035,-1.3025,-1.3008,-1.2994,-1.2969,-1.2965,-1.2952,-1.2942,-1.2931,-1.292,-1.2929,-1.2928,-1.2927,-1.2897,-1.2899,-1.2897,-1.2915,-1.2915,-1.2914,-1.2899,0,-1.314,-1.3113,-1.3101,-1.3078,-1.3064,-1.3052,-1.3038,-1.3021,-1.3009,-1.2994,-1.2979,-1.2962,-1.2959,-1.2951,-1.294,-1.2924,-1.2914,-1.2925,-1.29,-1.2899,-1.2905,-1.2894,-1.2897,-1.2883,-1.2896,-1.2896,-1.2896,0,-1.3126,-1.311,-1.3086,-1.3064,-1.3057,-1.3045,-1.3025,-1.3011,-1.2991,-1.2983,-1.2968,-1.2958,-1.2939,-1.294,-1.2912,-1.292,-1.2909,-1.2899,-1.2898,-1.2895,-1.2897,-1.289,-1.2878,-1.2876,-1.2892,-1.2892,-1.2893,0,-1.3128,-1.31,-1.3082,-1.3073,-1.3047,-1.3039,-1.3027,-1.3008,-1.2996,-1.2977,-1.2969,-1.2948,-1.2937,-1.292,-1.2904,-1.2906,-1.2877,-1.2877,-1.2868,-1.2869,-1.2863,-1.2863,-1.2848,-1.2856,-1.2856,-1.2856,-1.2857,0,-1.3119,-1.3104,-1.3083,-1.3072,-1.3055,-1.3039,-1.3023,-1.301,-1.2992,-1.2977,-1.2965,-1.2951,-1.2931,-1.2913,-1.29,-1.2879,-1.2874,-1.2865,-1.2862,-1.2866,-1.2867,-1.2858,-1.2859,-1.2856,-1.2856,-1.2856,-1.2856,0,-1.3118,-1.3103,-1.3083,-1.3059,-1.3053,-1.3042,-1.3021,-1.3009,-1.2995,-1.2976,-1.2971,-1.295,-1.2928,-1.2911,-1.2882,-1.2873,-1.2851,-1.2847,-1.2858,-1.2856,-1.2848,-1.2848,-1.2826,-1.2822,-1.2833,-1.2833,-1.2833,0,-1.3113,-1.3102,-1.3078,-1.3067,-1.3056,-1.3039,-1.3027,-1.3011,-1.2998,-1.2974,-1.2964,-1.2942,-1.2924,-1.289,-1.2871,-1.2849,-1.2844,-1.2838,-1.2841,-1.2845,-1.2843,-1.2843,-1.2841,-1.2837,-1.2837,-1.2837,-1.2837,0,-1.3106,-1.3098,-1.3082,-1.3063,-1.3049,-1.3032,-1.3015,-1.3007,-1.2987,-1.2973,-1.2952,-1.2937,-1.2908,-1.2886,-1.2861,-1.2847,-1.2838,-1.2836,-1.2833,-1.2837,-1.2843,-1.2839,-1.2856,-1.2837,-1.2837,-1.2837,-1.2837,-1.2837,-1.3102,-1.3091,-1.3072,-1.3054,-1.3039,-1.3023,-1.3011,-1.2996,-1.2978,-1.2954,-1.2945,-1.2922,-1.29,-1.2867,-1.2853,-1.2834,-1.2832,-1.2828,-1.2826,-1.2825,-1.2825,-1.2847,-1.2829,-1.2829,-1.2829,-1.2829,-1.2829,0,-1.3094,-1.308,-1.3064,-1.304,-1.3025,-1.3019,-1.2999,-1.2987,-1.2968,-1.2949,-1.2931,-1.2905,-1.2883,-1.2862,-1.2838,-1.2826,-1.2821,-1.2821,-1.2821,-1.2818,-1.2828,-1.2833,-1.2825,-1.2825,-1.2825,-1.2825,-1.2825,-1.2825,-1.3087,-1.3068,-1.3058,-1.3031,-1.3017,-1.2996,-1.2985,-1.297,-1.2954,-1.2927,-1.2909,-1.2895,-1.2875,-1.2849,-1.2827,-1.2822,-1.2813,-1.2813,-1.2806,-1.2816,-1.2817,-1.2818,-1.2822,-1.2811,-1.2811,-1.2796,-1.2796,-1.2796]},{"header":{"parameterUnit":"m.s-1","parameterCategory":1,"la1":30.2991,"la2":30.254,"lo1":-89.0895,"lo2":-89.0444,"dy":0.0017,"dx":0.0017,"nx":28,"ny":28,"refTime":"2024-08-04T09:00:00:Z","depth":0,"parameterNumber":3,"parameterNumberName":"V-component_of_WINDS"},"data":[0,0,0,0,0,0,0,0,0,0,0,0,0,0,0,0,0,0,0,0,0,0,0,0,0,0,0,0,0,0,0,0,0,0,0,0,0,0,0,0,0,0,0,0,0,0,0,0,0,0,0,0,0,0,0,0,0,0,-4.0308,-4.0308,0,-4.038,-4.038,-4.0381,-4.0424,-4.0424,-4.0424,-4.0424,-4.0495,-4.0497,-4.0499,0,0,0,0,0,0,0,0,0,0,0,0,0,-4.0207,-4.0209,-4.0308,-4.0309,-4.0309,-4.0379,-4.038,-4.0381,-4.0424,-4.0424,-4.0424,-4.0424,-4.0495,-4.0497,-4.0499,0,0,0,0,0,0,0,0,0,0,0,0,0,-4.0262,-4.0209,-4.0307,-4.0339,-4.0343,-4.0379,-4.038,-4.0382,-4.0424,-4.0424,-4.0424,-4.0424,-4.0494,-4.0497,-4.0499,-4.0509,0,0,-4.0507,-4.0508,0,0,0,0,0,0,0,0,-4.0259,-4.0266,-4.0334,-4.0337,-4.0341,-4.0393,-4.0371,-4.0424,-4.0424,-4.0393,-4.0424,-4.0425,-4.0461,-4.0466,-4.0479,-4.0513,-4.0516,-4.0507,-4.0509,-4.051,-4.0511,0,0,0,0,0,0,0,-4.0255,-4.0263,-4.0336,-4.0334,-4.0339,-4.035,-4.0358,-4.0381,-4.0424,-4.0395,-4.0399,-4.0407,-4.0463,-4.0476,-4.0481,-4.0517,-4.0507,-4.051,-4.0511,-4.0512,-4.0566,-4.0566,0,0,0,0,0,0,-4.0246,-4.0259,-4.0334,-4.0338,-4.03,-4.0351,-4.036,-4.0376,-4.0424,-4.0432,-4.0406,-4.0409,-4.0472,-4.0478,-4.0484,-4.0501,-4.051,-4.0512,-4.0514,-4.0566,-4.0566,-4.0566,0,0,0,0,0,0,-4.0244,-4.0253,-4.0331,-4.03,-4.0311,-4.0353,-4.037,-4.0377,-4.0391,-4.0433,-4.044,-4.0412,-4.0472,-4.048,-4.0504,-4.0504,-4.0514,-4.0516,-4.0566,-4.0566,-4.0566,-4.0534,0,0,0,0,0,0,-4.0241,-4.0251,-4.0255,-4.03,-4.0312,-4.0349,-4.037,-4.0378,-4.0395,-4.0399,-4.044,-4.0447,-4.0473,-4.05,-4.0506,-4.0508,-4.0518,-4.0566,-4.0566,-4.0566,-4.0535,-4.0533,-4.0531,0,0,0,0,0,-4.0237,-4.0242,-4.0255,-4.0264,-4.0318,-4.0349,-4.0356,-4.0387,-4.0395,-4.04,-4.0427,-4.0446,-4.0503,-4.0502,-4.0509,-4.0512,-4.0566,-4.0566,-4.0566,-4.0536,-4.0533,-4.0531,0,0,0,0,0,0,-4.0195,-4.0248,-4.0264,-4.0283,-4.0312,-4.0356,-4.0363,-4.0382,-4.0408,-4.041,-4.0446,-4.0455,-4.0476,-4.0496,-4.0494,-4.0526,-4.0537,-4.0538,-4.0512,-4.0509,-4.0507,-4.0502,-4.052,0,0,0,0,0,-4.0188,-4.021,-4.0255,-4.0268,-4.0282,-4.032,-4.0334,-4.0356,-4.0386,-4.0398,-4.0427,-4.0456,-4.0481,-4.0496,-4.0521,-4.0539,-4.0549,-4.0544,-4.0542,-4.054,-4.0541,-4.0554,-4.0553,-4.0565,-4.0565,-4.0565,0,0,-4.0174,-4.0206,-4.0216,-4.026,-4.0285,-4.0307,-4.0329,-4.035,-4.0367,-4.0401,-4.0426,-4.0449,-4.0483,-4.0505,-4.0515,-4.0522,-4.054,-4.054,-4.0538,-4.054,-4.0554,-4.0553,-4.0552,-4.0565,-4.0565,-4.0565,0,0,-4.0159,-4.0185,-4.02,-4.0225,-4.0263,-4.0289,-4.0292,-4.0335,-4.0352,-4.0378,-4.0405,-4.0425,-4.0466,-4.0491,-4.0509,-4.0507,-4.0526,-4.0514,-4.0502,-4.0515,-4.0514,-4.0514,-4.0515,-4.0515,-4.0515,-4.0515,-4.0515,0,-4.0136,-4.017,-4.0204,-4.0226,-4.0245,-4.0279,-4.0295,-4.0317,-4.0361,-4.0373,-4.0381,-4.0436,-4.0461,-4.049,-4.049,-4.0503,-4.0509,-4.0509,-4.0512,-4.0512,-4.0511,-4.0513,-4.0513,-4.0513,-4.0513,-4.0514,-4.0514,0,-4.0141,-4.0165,-4.0172,-4.0216,-4.0236,-4.0254,-4.0292,-4.0308,-4.0329,-4.0354,-4.0382,-4.0414,-4.0447,-4.0456,-4.0475,-4.0489,-4.0492,-4.0505,-4.0517,-4.0508,-4.0511,-4.0511,-4.0511,-4.0512,-4.0512,-4.0512,0,0,-4.0099,-4.0165,-4.0167,-4.0189,-4.0234,-4.0253,-4.0274,-4.0308,-4.0323,-4.0352,-4.0371,-4.0407,-4.0421,-4.0441,-4.0464,-4.0475,-4.0475,-4.0487,-4.0489,-4.0485,-4.0494,-4.0485,-4.0485,-4.0488,-4.0488,-4.0488,-4.0492,0,-4.0092,-4.0132,-4.0165,-4.0193,-4.0216,-4.0251,-4.0269,-4.03,-4.0325,-4.0349,-4.0376,-4.0402,-4.0417,-4.043,-4.0443,-4.0472,-4.0477,-4.0472,-4.0507,-4.0507,-4.0497,-4.0486,-4.0475,-4.0476,-4.0493,-4.0493,-4.0493,0,-4.0088,-4.0119,-4.015,-4.0197,-4.0208,-4.0224,-4.026,-4.0282,-4.0318,-4.0336,-4.036,-4.0385,-4.0409,-4.0419,-4.0455,-4.0451,-4.0467,-4.0484,-4.0485,-4.049,-4.05,-4.0491,-4.0477,-4.0478,-4.0494,-4.0494,-4.0494,0,-4.0057,-4.0106,-4.0132,-4.0149,-4.0203,-4.0214,-4.0238,-4.0274,-4.0294,-4.0325,-4.0339,-4.0372,-4.039,-4.0415,-4.0449,-4.0453,-4.0482,-4.0494,-4.0498,-4.0497,-4.0502,-4.0501,-4.0492,-4.0511,-4.0511,-4.0511,-4.0511,0,-4.0046,-4.0064,-4.0119,-4.0134,-4.0156,-4.0195,-4.0215,-4.0241,-4.0274,-4.0296,-4.0327,-4.0347,-4.039,-4.0415,-4.0441,-4.0468,-4.0476,-4.0491,-4.0498,-4.0489,-4.0487,-4.05,-4.0501,-4.0511,-4.0511,-4.0511,-4.0511,0,-4.0014,-4.0052,-4.0082,-4.0133,-4.0146,-4.016,-4.0203,-4.022,-4.0249,-4.0276,-4.0285,-4.0329,-4.0361,-4.0397,-4.044,-4.0458,-4.0483,-4.0492,-4.0471,-4.0475,-4.0478,-4.0477,-4.0477,-4.048,-4.0496,-4.0496,-4.0495,0,-4.0005,-4.002,-4.0073,-4.0091,-4.0114,-4.0141,-4.0163,-4.0202,-4.0223,-4.0267,-4.0279,-4.0314,-4.0344,-4.0393,-4.0429,-4.0463,-4.0474,-4.0472,-4.0479,-4.047,-4.0476,-4.0475,-4.0477,-4.0469,-4.0469,-4.0469,-4.0468,0,-3.9985,-4.0004,-4.0033,-4.007,-4.0095,-4.0126,-4.0158,-4.017,-4.0217,-4.0238,-4.0272,-4.0296,-4.0342,-4.0376,-4.0415,-4.0439,-4.0462,-4.0466,-4.0469,-4.046,-4.0448,-4.0456,-4.0466,-4.0466,-4.0466,-4.0466,-4.0466,-4.0466,-3.9965,-3.9981,-4.0022,-4.0055,-4.0084,-4.0114,-4.0133,-4.0166,-4.0195,-4.0236,-4.0258,-4.0292,-4.0331,-4.0386,-4.041,-4.0437,-4.0445,-4.0448,-4.045,-4.045,-4.0448,-4.0443,-4.0444,-4.0444,-4.0445,-4.0445,-4.0445,0,-3.9948,-3.9977,-4.0007,-4.0052,-4.0079,-4.0099,-4.0137,-4.0157,-4.0188,-4.0222,-4.0252,-4.0292,-4.0327,-4.0367,-4.0404,-4.0419,-4.043,-4.0427,-4.0427,-4.0433,-4.0439,-4.0433,-4.0418,-4.0418,-4.0418,-4.0418,-4.0418,-4.0418,-3.9942,-3.9971,-3.9996,-4.004,-4.0069,-4.0104,-4.0124,-4.0152,-4.0181,-4.0225,-4.0255,-4.0281,-4.0319,-4.0359,-4.0393,-4.0404,-4.0416,-4.0411,-4.0424,-4.0429,-4.0432,-4.0434,-4.0429,-4.0413,-4.0413,-4.0416,-4.0416,-4.0416]}]]